{"data":{"norad_id":66224,"intl_designator":"2025-244U","name":"STARLINK-35733","alt_names":[],"object_type":"PAYLOAD","status":"ACTIVE","operator":null,"country":"US","launch_date":"2025-10-28","launch_site_code":"AFWTR","launch_vehicle":null,"mission":null,"orbit_class":"UNKNOWN","rcs_meters":null,"size_class":null,"mass_kg":null,"dimensions":null,"purposes":["comms"],"wikipedia_slug":null,"has_3d_model":false,"image_url":null,"decayed_at":null,"tle_current":{"epoch":"2026-05-24T23:14:26.174400Z","epoch_age_seconds":78595,"freshness":"FRESH","line1":"1 66224U 25244U   26144.96835850  .00027121  00000+0  92379-3 0  9993","line2":"2 66224  53.1604 235.9167 0001348  84.5759 275.5395 15.30223932 33336","mean_motion":15.30223932,"eccentricity":0.0001348,"inclination_deg":53.1604,"raan_deg":235.9167,"arg_perigee_deg":84.5759,"mean_anomaly_deg":275.5395,"bstar":0.00092379,"rev_number":3333,"period_min":94.103873942026,"perigee_km":474.21979148566,"apogee_km":476.06743593912,"semimajor_km":6853.2806137124,"source":"CELESTRAK","updated_at":"2026-05-25T13:38:21.130570Z"}}}